Tracking 28052 objects as of 22-Sep-2023
HD Live streaming from Space Station
objects crossing your sky now

COSMOS 839 DEB

Track COSMOS 839 DEB now!
10-day predictions


NORAD ID: 17838
Int'l Code: 1976-067BK
Perigee: 982.9 km
Apogee: 2,000.6 km
Inclination: 66.0 °
Period: 115.6 minutes
Semi major axis: 7862 km
RCS: 0.0168 m2 (small)
Launch date: July 8, 1976
Source: Commonwealth of Independent States (former USSR) (CIS)
Launch site: PLESETSK MISSILE AND SPACE COMPLEX (PKMTR)

Note: This is SATELLITE DEBRIS
Your satellite tracking list
Your tracking list is empty




NASA's NSSDC Master Catalog

Two Line Element Set (TLE):
1 17838U 76067BK  23264.67895647  .00000360  00000-0  13832-2 0  9990
2 17838  65.9846 239.0359 0647182 257.0326 287.4754 12.45199957441021
Source of the keplerian elements: AFSPC